SWR2664 KMIA-LSZH

Flight info

Callsign SWR2664
Flight time N/A
Altitude 35000
Route FOLZZ3 SUMRS/M084F350 M327 JIMAC DCT BALOO DCT 3730N05000W 39N040W 42N030W 45N020W 46N015W DCT BUNAV DCT TIVLU/N0482F350 DCT AKEMO DCT GIGOT DCT OBATO DCT RESMI DCT TEPRI DCT POGZI DCT GELTA DCT MANAG DCT PEVIT DCT BLM
Aircraft B77W/H-SDE1E2E3FGHIJ2J3J4J5M1RWXY/LB1D1

Departure

Time N/A
Airport Miami International Airport (KMIA)

Arrival

Time 2026-04-30 13:58
Airport Zürich Airport (LSZH)
Time Latitude Longitude Altitude Speed Heading
2026-04-30 13:46 47.59649 7.65474 13889 ft 318 kts 104°
2026-04-30 13:46 47.59036 7.68577 13345 ft 310 kts 104°
2026-04-30 13:47 47.58439 7.71617 12823 ft 303 kts 104°
2026-04-30 13:47 47.57860 7.74587 12408 ft 299 kts 104°
2026-04-30 13:47 47.57269 7.77590 12267 ft 305 kts 107°
2026-04-30 13:47 47.56518 7.80497 12224 ft 300 kts 111°
2026-04-30 13:48 47.55697 7.83327 12215 ft 299 kts 112°
2026-04-30 13:48 47.54875 7.86162 12216 ft 301 kts 108°
2026-04-30 13:48 47.54558 7.89191 12206 ft 298 kts 83°
2026-04-30 13:48 47.55070 7.92120 12186 ft 302 kts 68°
2026-04-30 13:49 47.55941 7.95028 11858 ft 307 kts 62°
2026-04-30 13:49 47.57049 7.97689 11433 ft 308 kts 55°
2026-04-30 13:49 47.58295 8.00274 11026 ft 309 kts 54°
2026-04-30 13:49 47.59550 8.02806 10446 ft 300 kts 53°
2026-04-30 13:50 47.60770 8.05252 9838 ft 290 kts 53°
2026-04-30 13:50 47.63102 8.09903 8668 ft 273 kts 53°
2026-04-30 13:50 47.64225 8.12137 8092 ft 266 kts 53°
2026-04-30 13:51 47.65324 8.14324 7535 ft 261 kts 54°
2026-04-30 13:51 47.66343 8.16530 6945 ft 257 kts 64°
2026-04-30 13:51 47.66726 8.19082 6340 ft 254 kts 92°
2026-04-30 13:51 47.66323 8.21585 5825 ft 248 kts 110°
2026-04-30 13:52 47.65674 8.23872 5356 ft 241 kts 113°
2026-04-30 13:52 47.64989 8.26136 4719 ft 241 kts 113°
2026-04-30 13:52 47.64313 8.28356 4327 ft 228 kts 113°
2026-04-30 13:52 47.63675 8.30459 4146 ft 221 kts 113°
2026-04-30 13:53 47.63059 8.32491 4030 ft 211 kts 119°
2026-04-30 13:53 47.62189 8.34149 3988 ft 195 kts 130°
2026-04-30 13:53 47.61261 8.35676 4039 ft 204 kts 134°
2026-04-30 13:53 47.60252 8.37098 3983 ft 193 kts 136°
2026-04-30 13:54 47.59277 8.38438 3995 ft 189 kts 136°
2026-04-30 13:54 47.58314 8.39762 3999 ft 188 kts 135°
2026-04-30 13:54 47.57328 8.41120 3788 ft 200 kts 136°
2026-04-30 13:54 47.56354 8.42456 3577 ft 185 kts 136°
2026-04-30 13:55 47.55429 8.43724 3307 ft 177 kts 136°
2026-04-30 13:55 47.54560 8.44912 3104 ft 166 kts 136°
2026-04-30 13:55 47.53714 8.46071 2896 ft 167 kts 136°
2026-04-30 13:55 47.52850 8.47255 2689 ft 171 kts 137°
2026-04-30 13:56 47.51978 8.48449 2466 ft 168 kts 137°
2026-04-30 13:56 47.51144 8.49590 2156 ft 163 kts 136°
2026-04-30 13:56 47.50345 8.50676 1944 ft 152 kts 133°
2026-04-30 13:56 47.49565 8.51745 1792 ft 154 kts 133°
2026-04-30 13:57 47.48784 8.52827 1618 ft 153 kts 134°
2026-04-30 13:57 47.48015 8.53875 1430 ft 147 kts 134°
2026-04-30 13:57 47.47334 8.54810 1417 ft 116 kts 139°
2026-04-30 13:57 47.46881 8.55436 1414 ft 62 kts 138°
2026-04-30 13:58 47.46626 8.55668 1415 ft 32 kts 164°
2026-04-30 13:58 47.46491 8.55713 1412 ft 8 kts 168°
2026-04-30 13:58 47.46432 8.55733 1405 ft 10 kts 163°
2026-04-30 13:59 47.46372 8.55778 1412 ft 10 kts 146°
2026-04-30 13:59 47.46321 8.55844 1411 ft 10 kts 137°
2026-04-30 13:59 47.46270 8.55912 1411 ft 10 kts 137°
2026-04-30 13:59 47.46219 8.55979 1411 ft 10 kts 142°
2026-04-30 14:00 47.46153 8.56000 1402 ft 10 kts 186°
2026-04-30 14:00 47.46012 8.55980 1402 ft 10 kts 185°
2026-04-30 14:00 47.45950 8.55945 1412 ft 9 kts 227°
2026-04-30 14:01 47.45936 8.55903 1411 ft 2 kts 256°
2026-04-30 14:01 47.45937 8.55879 1409 ft 3 kts 282°
2026-04-30 14:01 47.45942 8.55833 1404 ft 7 kts 277°
2026-04-30 14:01 47.45948 8.55758 1402 ft 8 kts 276°
2026-04-30 14:02 47.45954 8.55676 1402 ft 8 kts 284°
2026-04-30 14:02 47.45982 8.55641 1405 ft 5 kts 337°
2026-04-30 14:02 47.46009 8.55639 1408 ft 3 kts
2026-04-30 14:02 47.46023 8.55641 1408 ft 2 kts
2026-04-30 14:03 47.46037 8.55643 1409 ft 1 kts
2026-04-30 14:03 47.46040 8.55644 1408 ft 0 kts